Regional Weather Roundup
Issued by NWS

Home | Current Version | Previous Version | Graphics & Text | Print | Product List | Glossary On
Versions: 1 2 3 4 5 6 7 8 9 10 11 12 13 14 15 16 17 18 19 20 21 22 23 24 25 26 27 28 29 30 31 32 33 34 35 36 37 38 39 40 41 42 43 44 45 46 47 48 49 50
000
ASUS43 KBIS 281302
RWRND

NORTH DAKOTA REGIONAL WEATHER ROUNDUP
NATIONAL WEATHER SERVICE BISMARCK ND
800 AM CDT THU MAY 28 2015

NOTE: "FAIR" INDICATES FEW OR NO CLOUDS BELOW 12,000 FEET WITH NO
SIGNIFICANT WEATHER AND/OR OBSTRUCTIONS TO VISIBILITY.


NDZ001>003-009>011-017-281400-
NORTHWEST NORTH DAKOTA

CITY           SKY/WX    TMP DP  RH WIND       PRES   REMARKS
WILLISTON      MOSUNNY   57  55  93 SW7       29.88S
MINOT          CLOUDY    59  56  89 CALM      29.85F FOG
MINOT AFB      CLOUDY    59  59 100 SE7       29.85F
$$

NDZ018>021-031>035-040>046-281400-
SOUTHWEST NORTH DAKOTA

CITY           SKY/WX    TMP DP  RH WIND       PRES   REMARKS
BISMARCK       PTSUNNY   63  57  81 W3        29.88F
DICKINSON      CLOUDY    53  51  93 NW3       29.89S
GARRISON         N/A     59  57  93 SW6       29.87S
HETTINGER ARPT CLOUDY    52  51  97 CALM      29.92R
$$

NDZ004>008-012>016-024-026-027-054-281400-
NORTHEAST NORTH DAKOTA

CITY           SKY/WX    TMP DP  RH WIND       PRES   REMARKS
GRAND FORKS    CLOUDY    57  55  93 E9        29.91F
GRND FRKS AFB  CLOUDY    56  55  95 SE6       29.92S
DEVILS LAKE    MOSUNNY   63  55  77 SE12      29.90R
$$

NDZ022-023-025-028>030-036>039-047>053-281400-
SOUTHEAST NORTH DAKOTA

CITY           SKY/WX    TMP DP  RH WIND       PRES   REMARKS
FARGO          LGT RAIN  61  58  90 E5        29.92F
JAMESTOWN      CLOUDY    61  58  90 E9        29.90F
$$




USA.gov is the U.S. government's official web portal to all federal, state and local government web resources and services.